Location: Owatonna
(44.0840°N, 93.2260°W)
Time: 22:17:44
(UTC-05:00)

Daily predictions for brighter satellites

Satellite Brightness Start Highest point End
(mag) Time Altitude Azimuth Time Altitude Azimuth Time Altitude Azimuth
NOSS 3-2 (C) 3.7 19:18:12 10° SSW 19:24:01 50° ESE 19:30:21 10° NE
Intercosmos 25 Rocket 4.5 19:18:07 10° S 19:25:32 81° W 19:30:00 10° N
Cosmos 1378 3.2 19:21:54 10° N 19:25:37 59° E 19:29:17 10° SSE
Cosmos 1076 Rocket 3.9 19:22:06 10° N 19:26:16 43° ENE 19:30:25 10° SSE
Cosmos 292 Rocket 4.4 19:21:57 10° SSW 19:26:42 62° WNW 19:31:31 10° NNE
Spot 2 Rocket 4.0 19:24:41 10° SE 19:29:17 37° ENE 19:33:55 10° N
SAR-Lupe-4 3.5 19:26:05 10° SSE 19:29:37 65° ENE 19:33:11 10° N
Cosmos 2219 Rocket 4.0 19:26:24 10° WSW 19:31:30 34° NW 19:36:39 10° N
Cosmos 2056 Rocket 4.1 19:29:14 10° NNW 19:34:38 67° WSW 19:39:59 10° S
Cosmos-2242 3.9 19:31:32 10° SSE 19:35:17 29° E 19:39:05 10° NNE
ATLAS CENTAUR R/B 3.5 19:32:55 10° NW 19:36:31 28° WSW 19:39:52 10° S
Cosmos 192 4.4 19:31:44 10° S 19:36:36 60° ESE 19:41:30 10° NNE
Meteor 1-28 Rocket 3.4 19:33:09 10° NNE 19:36:47 47° E 19:40:22 10° S
Cosmos 2034 Rocket 4.3 19:32:06 10° SSE 19:37:59 45° E 19:43:58 10° NNE
Cosmos 2278 Rocket 4.2 19:33:41 10° NW 19:38:41 33° WSW 19:43:40 10° SSW
Cosmos 1464 Rocket 4.0 19:32:57 10° S 19:39:03 61° E 19:45:09 10° NNE
CZ-4C R/B 3.3 19:35:30 10° WSW 19:40:43 45° NW 19:46:38 10° NNE
H-2A R/B 4.4 19:39:11 10° ESE 19:41:46 17° ENE 19:44:21 10° NNE
Cosmos 1805 3.8 19:38:53 10° SSE 19:42:28 35° E 19:46:06 10° NNE
ISS -1.3 19:41:38 10° SSE 19:43:12 13° SE 19:44:06 12° ESE
Cosmos 1953 2.8 19:40:09 10° SSE 19:43:50 37° E 19:47:32 10° NNE
Cosmos 2297 4.4 19:40:41 10° NNW 19:46:15 58° WSW 19:51:45 10° S
BREEZE-M DEB (TANK) 4.4 19:27:01 10° W 19:47:18 80° N 19:52:03 12° E
ALOS 3.1 19:43:48 10° SE 19:47:51 30° ENE 19:51:54 10° N
HJ-1C 3.6 19:46:27 10° SSE 19:49:41 47° ENE 19:52:57 10° N
SKYMED 2 4.4 19:46:07 10° N 19:50:22 54° WNW 19:54:36 10° SSW
Cosmos 1408 Rocket 3.4 19:49:02 10° N 19:53:25 76° E 19:57:43 10° SSE
Meteor 1-22 Rocket 4.4 19:48:42 10° SSW 19:54:00 73° W 19:59:18 10° N
Cosmos 1943 Rocket 3.9 19:52:20 10° N 19:55:38 15° NE 19:58:07 12° ENE
Cosmos 2369 Rocket 3.1 19:51:13 10° N 19:56:07 29° NE 19:59:45 16° ESE
USA 215 3.5 19:52:11 10° ENE 19:58:29 48° SE 20:04:44 10° SSW
Cosmos 1943 4.3 19:54:52 10° SSE 19:58:58 21° E 20:03:06 10° NE
Cosmos 1603 3.8 19:58:17 10° S 20:03:49 53° ESE 20:09:25 10° NE
Aureole 2 Rocket 4.2 20:00:29 10° SW 20:04:42 46° WNW 20:08:48 10° N
Cosmos 1470 3.7 20:02:45 10° SSE 20:06:01 26° E 20:09:16 10° NNE
NOAA 12 4.5 20:02:37 10° S 20:07:51 68° WSW 20:13:08 10° NNW
Cosmos 1733 4.3 20:08:47 23° ESE 20:09:18 23° E 20:12:25 10° NE
SL-8 R/B 4.2 20:05:17 10° SSW 20:09:43 39° SE 20:12:17 22° E
SeaSat 1 4.0 20:15:13 16° SE 20:15:13 16° SE 20:16:55 10° SSE
Meteor 1-29 3.0 20:09:55 10° NNE 20:13:23 57° E 20:16:50 10° S
SJ-6B 4.1 20:09:51 10° S 20:13:41 45° W 20:17:37 10° NNW
FREGAT/IRIS 3.9 20:11:09 10° S 20:14:07 44° W 20:17:06 10° NNW
CZ-4B DEB 3.1 20:14:32 25° SE 20:16:05 46° ENE 20:19:14 10° N
ERS-1 Rocket 4.3 20:15:22 19° ENE 20:16:12 20° ENE 20:19:48 10° NNE
Resurs 1-3 3.5 20:12:43 10° SSE 20:17:06 80° ENE 20:21:31 10° N
Helios 1A 3.0 20:13:34 10° SSE 20:17:47 88° WSW 20:22:02 10° NNW
Cosmos 724 4.3 20:13:09 10° SSW 20:19:03 77° ESE 20:25:10 10° NE
Cosmos 1674 2.9 20:15:31 10° N 20:19:17 47° ENE 20:21:24 23° SE
Resurs 01 Rocket 1.8 20:16:01 10° S 20:20:28 75° WSW 20:24:57 10° NNW
Cosmos 1743 Rocket 3.5 20:18:11 10° N 20:22:38 74° E 20:27:02 10° SSE
Cosmos 1758 3.8 20:22:51 10° SSW 20:26:55 66° W 20:31:01 10° N
Abrixas 3.0 20:26:54 10° SW 20:29:31 42° SSE 20:29:31 42° SSE
FengYun 1-2 T 4.3 20:25:19 10° SSE 20:30:50 82° WSW 20:36:22 10° NNW
Cosmos 1452 Rocket 4.4 20:26:00 10° NNW 20:31:04 49° WSW 20:36:05 10° S
Cosmos 1346 3.5 20:29:48 10° NNW 20:32:45 59° W 20:34:42 19° S
NOSS 3-2 (A) 4.4 20:29:49 10° WSW 20:35:48 51° NW 20:42:24 10° NNE
TELKOM 3 3.8 20:35:13 10° WNW 20:37:25 51° W 20:37:25 51° W
ATLAS 5 CENTAUR R/B 2.6 20:34:31 10° SW 20:39:16 55° NW 20:44:28 10° NNE
Cosmos 839 Rocket 4.4 20:33:04 10° NNW 20:40:56 63° NE 20:44:15 31° ESE
Nadezhda 4 Rocket 4.1 20:37:44 10° N 20:44:02 77° W 20:50:13 10° S
GP-B 3.2 20:40:45 10° NNE 20:45:07 53° E 20:45:48 47° ESE
ASTEX 1 3.3 20:45:19 10° N 20:50:16 88° W 20:55:09 10° S
Cosmos 1092 Rocket 3.9 20:45:51 10° N 20:52:06 89° W 20:58:15 10° S
Helios 1B rocket 3.7 20:49:12 10° N 20:53:05 41° WNW 20:56:57 10° SW
Cosmos 1328 4.0 20:49:41 10° N 20:53:08 54° NE 20:53:08 54° NE
Cosmos 1331 Rocket 4.4 20:49:10 10° N 20:54:14 43° ENE 20:54:37 42° ENE
Cosmos 1655 Rocket 4.1 20:48:21 10° N 20:54:25 50° ENE 20:55:58 41° ESE
Cosmos 1544 4.4 20:51:20 10° SSW 20:54:53 42° WNW 20:58:29 10° N
Cosmos 1939 Rocket 4.4 20:57:56 23° NNE 20:57:56 23° NNE 20:59:53 10° N
Cosmos 2142 Rocket 4.4 20:53:58 10° S 21:00:17 71° E 21:06:40 10° NNE
SL-16 R/B 4.4 20:56:09 10° WSW 21:00:49 25° NW 21:05:31 10° N
CZ-2D R/B 3.8 21:00:07 32° SSW 21:01:43 56° W 21:05:34 10° NNW
ERBS 4.2 20:59:47 10° NNW 21:01:57 24° N 21:01:57 24° N
H-2A R/B 4.1 21:06:03 18° NNE 21:06:03 18° NNE 21:07:40 10° NNE
Cosmos 2026 Rocket 3.8 20:59:17 10° N 21:05:22 67° E 21:07:12 45° SE
CENTAUR R/B 2.4 21:00:43 10° SSW 21:06:44 71° ESE 21:13:34 10° NE
Cosmos 1634 Rocket 3.9 21:02:44 10° S 21:08:59 86° E 21:15:14 10° N
H-2A R/B 4.1 21:14:25 28° SW 21:15:48 39° W 21:19:28 10° NNW
Envisat 3.2 21:19:33 55° NE 21:19:33 55° NE 21:23:55 10° N
ISS -0.7 21:15:59 10° WSW 21:16:48 17° WSW 21:16:48 17° WSW
Cosmos 2151 3.2 21:15:27 10° NNW 21:19:19 66° WNW 21:19:19 66° WNW
Cosmos 2058 4.0 21:17:43 10° N 21:20:17 37° N 21:20:17 37° N
ALOS 4.0 21:21:07 10° SSW 21:25:14 30° W 21:29:22 10° NNW
Gbstr 26 Del rocket 3.8 21:22:12 10° SW 21:25:35 49° SW 21:25:35 49° SW
H-2A R/B 4.4 21:32:02 11° NNE 21:32:02 11° NNE 21:32:20 10° NNE
Cosmos 158 Rocket 4.4 21:32:36 10° SW 21:37:24 56° WNW 21:42:13 10° NNE
Meteor 2-20 4.4 21:33:17 10° N 21:39:05 73° NE 21:39:05 73° NE
Cosmos 2369 Rocket 3.0 21:34:56 10° NW 21:40:21 47° WSW 21:41:35 41° SW
Cosmos 1943 Rocket 2.3 21:34:42 10° NNW 21:39:39 67° N 21:39:39 67° N
USA 215 3.7 21:37:00 20° NE 21:41:35 59° NNW 21:47:58 10° WSW
Cosmos 1943 3.6 21:36:59 10° SW 21:42:32 59° WNW 21:48:07 10° NNE
SeaSat 1 4.3 21:46:17 10° NNE 21:55:13 15° SW 21:55:59 10° SW
ERS-1 Rocket 3.7 21:55:22 50° WNW 21:55:22 50° WNW 21:59:31 10° NNW
CENTAUR R/B 4.1 22:52:26 10° W 22:58:03 31° NNW 23:04:19 10° NNE
